Location: Coffee Ditch
(40.9640°N, 122.7500°W)
Time: 07:25:03
(UTC+00:00)

Cosmos 1763 Rocket - Pass Details

Date: 08 September 2024
Orbit: 730 x 776 km, 74.0° (Epoch: 05 October)

Event Time Altitude Azimuth Distance (km) Brightness Sun altitude
Rises 12:15:58 0° 341° (NNW) 3,183 6.8 -17.0°
Reaches altitude 10° 12:18:19 10° 343° (NNW) 2,262 6.0 -16.6°
Maximum altitude 12:23:27 78° 70° (ENE) 771 3.6 -15.7°
Drops below altitude 10° 12:28:37 10° 157° (SSE) 2,278 6.0 -14.8°
Sets 12:31:00 0° 159° (SSE) 3,206 6.7 -14.4°
